Regional Weather Roundup
Issued by NWS

Home | Current Version | Previous Version | Graphics & Text | Print | Product List | Glossary On
Versions: 1 2 3 4 5 6 7 8 9 10 11 12 13 14 15 16 17 18 19 20 21 22 23 24 25 26 27 28 29 30 31 32 33 34 35 36 37 38 39 40 41 42 43 44 45 46 47 48 49 50
000
ASUS43 KTOP 280759
RWRKS

WEATHER ROUNDUP FOR KANSAS
NATIONAL WEATHER SERVICE GOODLAND KS
200 AM CST WED JAN 28 2015

NOTE:  "FAIR" INDICATES FEW OR NO CLOUDS BELOW 12,000 FEET WITH NO
SIGNIFICANT WEATHER AND/OR OBSTRUCTIONS TO VISIBILITY.

KSZ001>006-013>018-027>032-041>047-280900-
NORTHWEST KANSAS

CITY           SKY/WX    TMP DP  RH WIND       PRES   REMARKS
GOODLAND       CLEAR     30  26  85 W5        29.88F
HAYS           CLEAR     46  30  53 SW12      29.90F
HILL CITY      CLEAR     44  29  55 W8        29.87F
RUSSELL        CLEAR     45  33  63 SW12      29.87F
$$

KSZ061>065-074>080-084>089-280900-
SOUTHWEST KANSAS

CITY           SKY/WX    TMP DP  RH WIND       PRES   REMARKS
DODGE CITY     CLEAR     49  32  52 SW13      29.94F
ELKHART          N/A     45  33  63 SW10        N/A
GARDEN CITY    CLEAR     41  33  73 S9        29.91F
LIBERAL        CLEAR     45  32  61 SW13      29.97F
$$

KSZ066>073-081>083-090>101-280900-
SOUTHEAST KANSAS

CITY           SKY/WX    TMP DP  RH WIND       PRES   REMARKS
CHANUTE        CLEAR     42  32  67 SE9       30.01S
COFFEYVILLE    CLEAR     44  33  65 S6        30.02S
HUTCHINSON     CLEAR     42  32  67 CALM      29.94F
MEDICINE LODGE   N/A     53  33  46 SE5       29.95F
NEWTON         CLEAR     52  32  46 SW12      29.96F
PARSONS        CLEAR     45  33  63 S3        30.02F
WICHITA INTL   PTCLDY    43  33  68 S6        29.95F
WICHITA JABRA  CLEAR     53  36  52 SW10      29.95F
WICHITA MCCONL CLEAR     44  35  69 S10       29.96F
WINFIELD       CLEAR     48  31  51 S7        29.99F
$$

KSZ007>012-019>026-033>040-048>060-102>105-280900-
NORTHEAST KANSAS

CITY           SKY/WX    TMP DP  RH WIND       PRES   REMARKS
CONCORDIA      PTCLDY    43  34  70 S5        29.88F
EMPORIA        PTCLDY    42  33  70 S13       29.95F
LAWRENCE       CLEAR     37  29  72 SE9       29.99F
MANHATTAN      PTCLDY    39  32  76 S3        29.93F
OLATHE IND     CLEAR     41  30  65 SE13      30.00F
OLATHE EXE     CLEAR     42  30  62 SE12      30.00F
SALINA         PTCLDY    42  33  70 S7        29.91F
TOPEKA BILLARD CLEAR     41  29  62 SE8       29.98F
TOPEKA FORBES  CLEAR     44  29  55 SE13      29.96F
$$


USA.gov is the U.S. government's official web portal to all federal, state and local government web resources and services.